Provo, UT

9:13 AM MDT on August 28, 2016 (GMT -0600)
Provo Municipal

Weather History for KPVU - December, 2013

Change the Weather History Date:

Tuesday, December 24, 2013

  Actual Average Record
Temperature  
Mean Temperature 26 °F -  
Max Temperature 37 °F 33 °F 51 °F (2003)
Min Temperature 15 °F 19 °F -11 °F (1990)
Degree Days  
Heating Degree Days 39    
Moisture  
Dew Point 24 °F    
Average Humidity 84    
Maximum Humidity 100    
Minimum Humidity 52    
Precipitation  
Precipitation 0.00 in - - ()
Sea Level Pressure  
Sea Level Pressure 30.39 in    
Wind  
Wind Speed 3 mph (NW)    
Max Wind Speed 15 mph    
Max Gust Speed 23 mph    
Visibility 9 miles    
Events      
Averages and records for this station are not official NWS values.
T = Trace of Precipitation, MM = Missing Value Source: NWS Daily Summary

Daily Weather History Graph

Daily Weather History Graph

Search for Another Location

Airport or City:

Trip Planner

Search our weather history database for the weather conditions in past years. The results will help you decide how hot, cold, wet, or windy it might be!

Date:

Astronomy

Dec. 24, 2013 Rise Set
Actual Time 7:47 AM MST 5:06 PM MST
Civil Twilight 7:16 AM MST 5:36 PM MST
Nautical Twilight 6:42 AM MST 6:10 PM MST
Astronomical Twilight 6:09 AM MST 6:44 PM MST
Moon No Moon Rise 11:42 AM MST (12/24)
Length of Visible Light 10h 20m
Length of Day
9h 18m
Waning Gibbous, 58% of the Moon is Illuminated
Dec 24
Waning Gibbous
Dec 25
Last Quarter
Jan 1
New
Jan 7
First Quarter
Jan 15
Full

Hourly Weather History & Observations

Time (MST) Temp. Windchill Dew Point Humidity Pressure Visibility Wind Dir Wind Speed Gust Speed Precip Events Conditions
12:15 AM 28.4 °F - 26.6 °F 93% 30.35 in 0.2 mi Calm Calm - N/A   Overcast
12:35 AM 26.6 °F - 23.0 °F 86% 30.35 in 0.8 mi Calm Calm - N/A   Overcast
12:55 AM 24.8 °F - 23.0 °F 93% 30.34 in 1.2 mi Calm Calm - N/A   Overcast
1:15 AM 26.6 °F - 26.6 °F 100% 30.33 in 0.5 mi Calm Calm - N/A   Overcast
1:35 AM 26.6 °F - 26.6 °F 100% 30.33 in 2.5 mi Calm Calm - N/A   Overcast
1:55 AM 28.4 °F - 28.4 °F 100% 30.32 in 3.0 mi Calm Calm - N/A   Overcast
2:15 AM 30.2 °F 26.7 °F 30.2 °F 100% 30.32 in 5.0 mi East 3.5 mph - N/A   Overcast
2:35 AM 32.0 °F 28.7 °F 30.2 °F 93% 30.32 in 7.0 mi East 3.5 mph - N/A   Overcast
2:55 AM 32.0 °F 27.5 °F 30.2 °F 93% 30.31 in 7.0 mi ESE 4.6 mph - N/A   Overcast
3:15 AM 32.0 °F 26.4 °F 30.2 °F 93% 30.31 in 8.0 mi ESE 5.8 mph - N/A   Overcast
3:35 AM 30.2 °F - 30.2 °F 100% 30.30 in 5.0 mi Calm Calm - N/A   Overcast
3:55 AM 30.2 °F 26.7 °F 30.2 °F 100% 30.29 in 5.0 mi NNE 3.5 mph - N/A   Overcast
4:15 AM 32.0 °F 28.7 °F 30.2 °F 93% 30.29 in 7.0 mi NNE 3.5 mph - N/A   Overcast
4:35 AM 30.2 °F 26.7 °F 26.6 °F 86% 30.28 in 6.0 mi NW 3.5 mph - N/A   Overcast
4:55 AM 30.2 °F 23.4 °F 26.6 °F 86% 30.29 in 5.0 mi NNW 6.9 mph - N/A   Overcast
5:15 AM 30.2 °F 25.4 °F 26.6 °F 86% 30.29 in 5.0 mi NNW 4.6 mph - N/A   Overcast
5:35 AM 30.2 °F 25.4 °F 30.2 °F 100% 30.29 in 6.0 mi East 4.6 mph - N/A   Overcast
5:55 AM 30.2 °F - 30.2 °F 100% 30.29 in 7.0 mi Calm Calm - N/A   Overcast
6:15 AM 30.2 °F 25.4 °F 28.4 °F 93% 30.28 in 7.0 mi WSW 4.6 mph - N/A   Overcast
6:35 AM 30.2 °F - 28.4 °F 93% 30.28 in 6.0 mi Calm Calm - N/A   Overcast
6:55 AM 30.2 °F 26.7 °F 28.4 °F 93% 30.29 in 6.0 mi NNW 3.5 mph - N/A   Overcast
7:32 AM 32.0 °F 23.0 °F 28.4 °F 87% 30.33 in 10.0 mi WNW 11.5 mph 23.0 mph N/A   Unknown
7:54 AM 35.6 °F 28.6 °F 33.8 °F 93% 30.34 in 10.0 mi WNW 9.2 mph - N/A   Scattered Clouds
8:50 AM 35.6 °F 29.9 °F 32.0 °F 87% 30.38 in 15.0 mi WNW 6.9 mph - N/A   Partly Cloudy
9:55 AM 37.4 °F - 30.2 °F 75% 30.40 in 15.0 mi North - - N/A   Scattered Clouds
10:51 AM 37.4 °F 28.5 °F 28.4 °F 70% 30.43 in 15.0 mi NNW 15.0 mph - N/A   Partly Cloudy
11:47 AM 37.4 °F 29.8 °F 21.2 °F 52% 30.44 in 15.0 mi NNW 11.5 mph 23.0 mph N/A   Partly Cloudy
12:47 PM 37.4 °F 28.9 °F 21.2 °F 52% 30.44 in 15.0 mi NW 13.8 mph - N/A   Scattered Clouds
1:47 PM 37.4 °F 28.9 °F 21.2 °F 52% 30.44 in 15.0 mi NW 13.8 mph - N/A   Partly Cloudy
2:47 PM 35.6 °F 27.5 °F 19.4 °F 52% 30.44 in 15.0 mi NW 11.5 mph - N/A   Partly Cloudy
3:51 PM 33.8 °F 27.0 °F 19.4 °F 56% 30.45 in 15.0 mi NW 8.1 mph - N/A   Partly Cloudy
4:53 PM 32.0 °F 26.4 °F 17.6 °F 55% 30.46 in 15.0 mi WNW 5.8 mph - N/A   Clear
5:51 PM 28.4 °F 24.6 °F 15.8 °F 59% 30.46 in 15.0 mi WNW 3.5 mph - N/A   Clear
6:49 PM 28.4 °F - 17.6 °F 64% 30.48 in 10.0 mi North - - N/A   Clear
7:55 PM 24.8 °F - 15.8 °F 69% 30.50 in 10.0 mi Calm Calm - N/A   Clear
8:52 PM 21.2 °F - 17.6 °F 86% 30.51 in 10.0 mi Calm Calm - N/A   Clear
9:15 PM 19.4 °F 12.8 °F 15.8 °F 86% 30.51 in 10.0 mi South 4.6 mph - N/A   Clear
9:35 PM 17.6 °F - 15.8 °F 93% 30.52 in 10.0 mi Calm Calm - N/A   Clear
9:55 PM 17.6 °F - 15.8 °F 93% 30.51 in 10.0 mi Calm Calm - N/A   Clear
10:15 PM 17.6 °F 12.3 °F 12.2 °F 79% 30.52 in 10.0 mi South 3.5 mph - N/A   Clear
10:35 PM 17.6 °F - 12.2 °F 79% 30.52 in 10.0 mi Calm Calm - N/A   Clear
10:55 PM 15.8 °F - 14.0 °F 93% 30.52 in 10.0 mi Calm Calm - N/A   Clear
11:15 PM 17.6 °F 12.3 °F 12.2 °F 79% 30.54 in 10.0 mi NNW 3.5 mph - N/A   Clear
11:35 PM 17.6 °F - 15.8 °F 93% 30.54 in 10.0 mi Calm Calm - N/A   Clear
11:55 PM 17.6 °F 10.7 °F 15.8 °F 93% 30.54 in 10.0 mi SW 4.6 mph - N/A   Clear